sat.trackr.live / text

‹ back to catalog

STARLINK-32444

NORAD 62073 · 2024-217S

PAYLOAD ACTIVE UNKNOWN

§ Identity

Operator
Country
US
Launch date
2024-11-24
Launch site
AFWTR
Launch vehicle
Mass (kg)
RCS (m²)

Purposes: comms

External: N2YO · Heavens-Above · Gunter

§ Orbital elements

Epoch: 2026-05-25T04:13:31.943424Z

Period
93.85 min
Inclination
53.1588°
Eccentricity
0.0001390
Mean motion
15.34408859 rev/d
Perigee alt
461.7 km
Apogee alt
463.6 km
Semi-major
6,840.8 km
B*
4.8251e-4
RAAN
198.5103°
Arg perigee
90.9308°
Mean anomaly
269.1854°
Rev number
8,513

§ Raw data

STARLINK-324441 62073U 24217S   26145.17606416  .00015965  00000+0  48251-3 0  99912 62073  53.1588 198.5103 0001390  90.9308 269.1854 15.34408859 85138

JSON: /api/v1/satellites/62073 · /tle

For live sub-satellite position, see the globe view (requires WebGL).

§ Visibility from observer

Set your observer location to see the next 7 days of passes ≥ 10°. The values pass through the URL so the page stays shareable.

No JS? Fill the form by hand. The geolocation button needs JavaScript.